Elmira, NY

2:38 AM EST on November 18, 2019 (GMT -0500)
Elmira-Corning Regional

Weather History for KELM - October, 2019

Change the Weather History Date:

Saturday, October 12, 2019

  Actual Average Record
Temperature  
Mean Temperature 47 °F -  
Max Temperature 57 °F 60 °F 87 °F (1949)
Min Temperature 37 °F 37 °F 20 °F (1964)
Degree Days  
Heating Degree Days 18    
Moisture  
Dew Point 43 °F    
Average Humidity 95    
Maximum Humidity 100    
Minimum Humidity 81    
Precipitation  
Precipitation 0.03 in - - ()
Sea Level Pressure  
Sea Level Pressure 30.01 in    
Wind  
Wind Speed 1 mph (NNW)    
Max Wind Speed 7 mph    
Max Gust Speed -    
Visibility 6 miles    
Events Fog , Rain    
Averages and records for this station are not official NWS values.
T = Trace of Precipitation, MM = Missing Value Source: NWS Daily Summary

Daily Weather History Graph

Daily Weather History Graph

Search for Another Location

Airport or City:

Astronomy

Oct. 12, 2019 Rise Set
Actual Time 7:16 AM EDT 6:30 PM EDT
Civil Twilight 6:48 AM EDT 6:59 PM EDT
Nautical Twilight 6:15 AM EDT 7:31 PM EDT
Astronomical Twilight 5:43 AM EDT 8:03 PM EDT
Moon 6:28 PM EDT (10/12) 5:48 AM EDT (10/12)
Length of Visible Light 12h 10m
Length of Day
11h 14m
Waxing Gibbous, 99% of the Moon is Illuminated
Oct 12
Waxing Gibbous
Oct 13
Full
Oct 21
Last Quarter
Oct 27
New
Nov 4
First Quarter

Hourly Weather History & Observations

Time (EDT) Temp. Windchill Dew Point Humidity Pressure Visibility Wind Dir Wind Speed Gust Speed Precip Events Conditions
12:48 AM 42.8 °F - 41.0 °F 93% 30.04 in 1.8 mi Calm Calm - N/A   Clear
12:53 AM 41.0 °F - 39.9 °F 96% 30.04 in 1.5 mi Calm Calm - N/A   Clear
12:58 AM 39.9 °F - 39.0 °F 97% 30.03 in 3.0 mi Calm Calm - N/A   Clear
1:05 AM 41.0 °F - 39.9 °F 96% 30.02 in 2.5 mi Calm Calm - N/A   Clear
1:12 AM 42.1 °F - 39.9 °F 92% 30.02 in 10.0 mi Calm Calm - N/A   Clear
1:53 AM 41.0 °F - 39.9 °F 96% 30.03 in 10.0 mi Calm Calm - N/A   Clear
2:53 AM 39.0 °F - 37.9 °F 96% 30.00 in 10.0 mi Calm Calm - N/A   Clear
3:37 AM 39.9 °F - 39.0 °F 97% 30.00 in 1.5 mi Calm Calm - N/A   Scattered Clouds
3:39 AM 39.0 °F - 39.0 °F 100% 30.00 in 0.8 mi Calm Calm - N/A   Mist
3:53 AM 37.9 °F - 37.9 °F 100% 30.00 in 0.8 mi Calm Calm - N/A   Mist
3:57 AM 37.9 °F - 37.9 °F 100% 30.00 in 2.0 mi Calm Calm - N/A   Mostly Cloudy
4:04 AM 39.9 °F - 39.0 °F 97% 29.99 in 10.0 mi Calm Calm - N/A   Mostly Cloudy
4:10 AM 39.0 °F 36.8 °F 39.0 °F 100% 29.98 in 1.8 mi East 3.5 mph - N/A   Mostly Cloudy
4:19 AM 39.9 °F 36.7 °F 37.9 °F 93% 29.98 in 3.0 mi NE 4.6 mph - N/A   Scattered Clouds
4:53 AM 39.0 °F - 37.9 °F 96% 29.99 in 10.0 mi Calm Calm - N/A   Clear
5:29 AM 39.9 °F - 39.0 °F 97% 29.97 in 2.5 mi Calm Calm - N/A   Scattered Clouds
5:31 AM 39.9 °F - 39.0 °F 97% 29.98 in 1.5 mi Calm Calm - N/A   Mostly Cloudy
5:45 AM 37.9 °F 35.5 °F 37.0 °F 97% 29.97 in 3.0 mi NNE 3.5 mph - N/A   Mostly Cloudy
5:53 AM 37.9 °F - 37.0 °F 97% 29.97 in 10.0 mi Calm Calm - N/A   Scattered Clouds
6:53 AM 39.0 °F - 37.9 °F 96% 29.98 in 10.0 mi Calm Calm - N/A   Scattered Clouds
7:08 AM 41.0 °F - 39.9 °F 96% 29.97 in 7.0 mi Calm Calm - N/A   Mostly Cloudy
7:53 AM 43.0 °F - 41.0 °F 93% 29.98 in 10.0 mi Calm Calm - N/A   Overcast
8:53 AM 45.0 °F - 43.0 °F 93% 29.99 in 10.0 mi Calm Calm - 0.00 in   Overcast
9:53 AM 46.9 °F - 45.0 °F 93% 29.98 in 10.0 mi Calm Calm - 0.00 in   Overcast
10:53 AM 48.9 °F - 46.9 °F 93% 29.97 in 7.0 mi Calm Calm - 0.03 in Rain Light Rain
11:53 AM 52.0 °F - 50.0 °F 93% 29.97 in 10.0 mi Calm Calm - 0.00 in Rain Light Rain
12:53 PM 54.0 °F - 50.0 °F 86% 29.97 in 10.0 mi Calm Calm - 0.00 in Rain Light Rain
1:53 PM 55.0 °F - 51.1 °F 86% 29.96 in 10.0 mi Calm Calm - 0.00 in   Overcast
2:53 PM 57.0 °F - 51.1 °F 81% 29.97 in 10.0 mi Calm Calm - N/A   Overcast
3:53 PM 57.0 °F - 52.0 °F 83% 29.97 in 10.0 mi Calm Calm - N/A   Overcast
4:53 PM 57.0 °F - 53.1 °F 87% 29.98 in 10.0 mi Calm Calm - N/A   Overcast
5:53 PM 55.9 °F - 51.1 °F 84% 30.00 in 10.0 mi NNW 3.5 mph - N/A   Overcast
6:25 PM 54.0 °F - 51.1 °F 90% 29.99 in 10.0 mi NNE 6.9 mph - N/A   Mostly Cloudy
6:36 PM 54.0 °F - 51.1 °F 90% 29.99 in 10.0 mi East 3.5 mph - N/A   Mostly Cloudy
6:53 PM 52.0 °F - 50.0 °F 93% 30.01 in 10.0 mi ENE 3.5 mph - N/A   Scattered Clouds
7:53 PM 45.0 °F 43.5 °F 45.0 °F 100% 30.03 in 2.5 mi NNW 3.5 mph - N/A   Clear
8:01 PM 45.0 °F - 44.1 °F 97% 30.02 in 10.0 mi Calm Calm - N/A   Clear
8:53 PM 46.0 °F - 45.0 °F 96% 30.04 in 10.0 mi Calm Calm - N/A   Partly Cloudy
9:00 PM 42.1 °F - 42.1 °F 100% 30.03 in 1.2 mi Calm Calm - N/A   Partly Cloudy
9:08 PM 43.0 °F - 41.0 °F 93% 30.03 in 0.5 mi Calm Calm - N/A Fog Fog
9:15 PM 42.1 °F 40.2 °F 41.0 °F 96% 30.03 in 0.2 mi NW 3.5 mph - N/A Fog Fog
9:24 PM 42.1 °F - 42.1 °F 100% 30.03 in 0.5 mi Calm Calm - N/A Fog Fog
9:32 PM 42.1 °F - 42.1 °F 100% 30.04 in 0.8 mi Calm Calm - N/A   Mist
9:41 PM 42.1 °F - 41.0 °F 96% 30.04 in 0.8 mi Calm Calm - N/A   Scattered Clouds
9:53 PM 42.1 °F - 41.0 °F 96% 30.06 in 0.5 mi Calm Calm - N/A Fog Fog
10:10 PM 42.1 °F - 42.1 °F 100% 30.05 in 2.0 mi Calm Calm - N/A   Mostly Cloudy
10:25 PM 46.0 °F 43.9 °F 46.0 °F 100% 30.06 in 9.0 mi SW 4.6 mph - N/A   Overcast
10:36 PM 46.0 °F - 46.0 °F 100% 30.06 in 1.5 mi Calm Calm - N/A   Overcast
10:39 PM 46.0 °F 44.8 °F 46.0 °F 100% 30.06 in 0.8 mi South 3.5 mph - N/A   Overcast
10:53 PM 46.9 °F - 46.0 °F 97% 30.08 in 0.5 mi Calm Calm - N/A Fog Fog
11:14 PM 46.9 °F - 46.9 °F 100% 30.06 in 1.2 mi WSW 3.5 mph - N/A   Overcast
11:41 PM 48.0 °F - 46.9 °F 96% 30.06 in 10.0 mi WSW 5.8 mph - N/A   Overcast
11:53 PM 48.0 °F - 46.9 °F 96% 30.07 in 10.0 mi WSW 4.6 mph - N/A   Overcast